Location: Newark
(48.0000°N, 67.0000°E)
Time: 04:00:44
(UTC+00:00)

Vanguard 2 - Pass Details

Date: 21 February 2020
Orbit: 552 x 2938 km, 32.9° (Epoch: 04 April)

Event Time Altitude Azimuth Distance (km) Brightness Sun altitude
Exits shadow 20:36:05 12° 110° (ESE) 4,525 11.4 -51.0°
Drops below altitude 10° 20:37:30 10° 105° (ESE) 4,805 11.6 -51.0°
Sets 20:44:08 0° 88° (E) 6,269 12.4 -50.6°
